Regional Weather Roundup
Issued by NWS

Home | Current Version | Previous Version | Text Only | Print | Product List | Glossary On
Versions: 1 2 3 4 5 6 7 8 9 10 11 12 13 14 15 16 17 18 19 20 21 22 23 24 25 26 27 28 29 30 31 32 33 34 35 36 37 38 39 40 41 42 43 44 45 46 47 48 49 50
000
ASUS45 KREV 210710
RWRNV
NEVADA REGIONAL WEATHER ROUNDUP
NATIONAL WEATHER SERVICE RENO NV
1200 AM PDT SUN SEP 21 2014

NOTE: "FAIR" INDICATES FEW OR NO CLOUDS BELOW 12,000 FEET WITH NO
SIGNIFICANT WEATHER AND/OR OBSTRUCTIONS TO VISIBILITY.

NVZ001-003-004-210800-
WESTERN NEVADA

CITY           SKY/WX    TMP DP  RH WIND       PRES   REMARKS
RENO           CLOUDY    71  43  36 SE10      30.09R
CARSON CITY    MOCLDY    66  39  37 CALM      30.13S
MINDEN         CLOUDY    63  39  42 CALM      30.14R
FALLON         CLOUDY    71  43  36 NE24G36   30.03F
LOVELOCK       CLOUDY    68  49  50 SE10      30.11S HAZE
HAWTHORNE      CLEAR     70  43  37 CALM      30.13R
$$

NVZ002-CAZ072-073-210800-
NORTHERN AND CENTRAL SIERRA

CITY           SKY/WX    TMP DP  RH WIND       PRES   REMARKS
S. LAKE TAHOE  LGT RAIN  57  41  55 CALM      30.20S
TRUCKEE        CLOUDY    61  46  59 CALM      30.18S THUNDER
SQUAW VLY 8000 NOT AVBL
MAMMOTH LAKES  FAIR      48  43  81 NW3       30.26R
BRIDGEPORT     CLOUDY    54  40  59 CALM      30.23R
$$

NVZ030-031-036-210800-
NORTHERN NEVADA

CITY           SKY/WX    TMP DP  RH WIND       PRES   REMARKS
ELKO           CLOUDY    63  48  58 SW5       30.20R
WINNEMUCCA     LGT RAIN  65  51  60 SE22G29   30.14R
WENDOVER       CLOUDY    72  41  33 NW6       30.10S
$$

NVZ035-037-210800-
CENTRAL NEVADA

CITY           SKY/WX    TMP DP  RH WIND       PRES   REMARKS
ELY            CLOUDY    58  51  78 N7        30.25S
EUREKA           N/A     55  53  93 W8        30.29R
$$

NVZ013-014-210800-
SOUTH CENTRAL NEVADA

CITY           SKY/WX    TMP DP  RH WIND       PRES   REMARKS
TONOPAH        LGT RAIN  57  51  80 NE13      30.19R
$$

NVZ017-020-022-210800-
SOUTHERN NEVADA

CITY           SKY/WX    TMP DP  RH WIND       PRES   REMARKS
LAS VEGAS      CLOUDY    81  57  43 NE6       29.88S THUNDER
N. LAS VEGAS   RAIN      78  56  46 N8        29.91R
NELLIS AFB     RAIN      77  68  73 E7        29.91R
HENDERSON      LGT RAIN  80  60  50 NE7       29.94S
MERCURY        MOCLDY    68  57  68 NE9       30.00S
$$


USA.gov is the U.S. government's official web portal to all federal, state and local government web resources and services.